Bellingham, WA
on Wednesday, February 27, 2013

Wednesday
Previous Day Next Day
Daily Summary
 ActualAverageRecord
Temperature
Mean Temperature °F 42°F  
Max Temperature 51°F 50°F 68°F (1986)
Min Temperature 42°F 34°F 16°F (1955)
Degree Days
Heating Degree Days 18 23  
Month to date heating degree days 656  
Cooling Degree Days 0 0  
Month to date cooling degree days 0  
Year to date cooling degree days 0  
Moisture
Dew Point 38°F   
Average Humidity 73    
Maximum Humidity 82    
Minimum Humidity 59    
Precipitation
Precipitation 0.04 in 0.11 in 1.04 in (1972)
Month to date precipitation 2.92  
Year to date precipitation 7.59  
Wind
Wind Speed 8 mph   
Max Wind Speed 17 mph   
Max Gust Speed 25 mph   
Visibility 10 miles   
Events Rain   

Key: T is trace of precipitation, MM is missing value
Source: NWS Daily Summary
Time(PST)TemperatureDew PointHumidity Pressure Visibility Wind DirectionWind SpeedGust SpeedPrecipitationEvents Conditions
12:06 AM 48.2°F 35.6°F 62% 30.16 in 10.0 miles SSE 12.7 mph 23.0 mph N/A   Overcast
12:53 AM 45.0°F 37.9°F 76% 30.21 in 5.0 miles South 17.3 mph 25.3 mph 0.03 in Rain Light Rain
1:20 AM 44.6°F 37.4°F 76% 30.19 in 10.0 miles SSE 9.2 mph 20.7 mph 0.01 in   Overcast
1:53 AM 45.0°F 37.0°F 74% 30.22 in 10.0 miles SSE 13.8 mph 18.4 mph 0.01 in   Mostly Cloudy
2:43 AM 44.6°F 37.4°F 76% 30.20 in 10.0 miles SSE 8.1 mph - N/A   Mostly Cloudy
2:53 AM 44.1°F 37.0°F 76% 30.22 in 10.0 miles SSE 6.9 mph - N/A   Mostly Cloudy
3:53 AM 44.1°F 37.0°F 76% 30.24 in 10.0 miles SE 9.2 mph - N/A   Overcast
4:12 AM 44.6°F 37.4°F 76% 30.22 in 10.0 miles SSE 9.2 mph - N/A   Overcast
4:53 AM 44.1°F 37.9°F 79% 30.27 in 10.0 miles SSE 5.8 mph - N/A   Overcast
5:30 AM 44.6°F 37.4°F 76% 30.26 in 10.0 miles SSE 5.8 mph - N/A   Overcast
5:53 AM 44.1°F 37.9°F 79% 30.30 in 10.0 miles SSE 5.8 mph - N/A   Overcast
6:03 AM 44.6°F 37.4°F 76% 30.27 in 10.0 miles SSE 8.1 mph - N/A   Overcast
6:53 AM 44.6°F 37.4°F 76% 30.28 in 10.0 miles SE 6.9 mph - N/A   Overcast
7:08 AM 44.6°F 37.4°F 76% 30.28 in 10.0 miles SSE 5.8 mph - N/A   Overcast
7:53 AM 45.0°F 37.9°F 76% 30.31 in 10.0 miles SE 6.9 mph - N/A   Mostly Cloudy
8:53 AM 46.9°F 37.9°F 71% 30.31 in 10.0 miles South 4.6 mph - N/A   Mostly Cloudy
9:53 AM 48.9°F 39.0°F 69% 30.32 in 10.0 miles SSE 8.1 mph - N/A   Clear
10:53 AM 48.9°F 37.9°F 66% 30.31 in 10.0 miles SSE 4.6 mph - N/A   Partly Cloudy
11:53 AM 51.1°F 37.9°F 61% 30.33 in 10.0 miles SSE 8.1 mph - N/A   Mostly Cloudy
12:53 PM 51.1°F 37.0°F 59% 30.31 in 10.0 miles SSE 6.9 mph - N/A   Overcast
1:53 PM 50.0°F 39.0°F 66% 30.30 in 10.0 miles NNE 3.5 mph - N/A   Mostly Cloudy
2:53 PM 50.0°F 39.0°F 66% 30.30 in 10.0 miles Calm Calm - N/A   Overcast
3:53 PM 50.0°F 39.0°F 66% 30.30 in 10.0 miles NE 4.6 mph - N/A   Overcast
4:53 PM 50.0°F 37.9°F 63% 30.30 in 10.0 miles North 3.5 mph - N/A   Overcast
5:53 PM 48.0°F 37.9°F 68% 30.31 in 10.0 miles NNW 3.5 mph - 0.00 in   Overcast
6:53 PM 46.9°F 39.9°F 77% 30.30 in 10.0 miles Calm Calm - 0.00 in Rain Light Rain
7:05 PM 46.4°F 41.0°F 81% 30.29 in 8.0 miles NE 3.5 mph - 0.00 in Rain Light Rain
7:34 PM 46.4°F 39.2°F 76% 30.29 in 10.0 miles NE 4.6 mph - 0.00 in   Overcast
7:53 PM 46.0°F 39.9°F 79% 30.32 in 10.0 miles ENE 3.5 mph - 0.00 in   Overcast
8:53 PM 45.0°F 39.0°F 80% 30.30 in 10.0 miles Calm Calm - N/A   Overcast
9:53 PM 43.0°F 37.9°F 82% 30.31 in 10.0 miles Calm Calm - N/A   Mostly Cloudy
10:53 PM 42.1°F 37.0°F 82% 30.30 in 10.0 miles North 3.5 mph - N/A   Mostly Cloudy
11:53 PM 42.1°F 37.0°F 82% 30.30 in 10.0 miles North 3.5 mph - N/A   Mostly Cloudy
Moon Phase
Feb. 27 Mar. 04 Mar. 11 Mar. 19 Mar. 27
Sunrise:06:55 AM (PST) Moon Rise:08:36 PM (PST)2/27
Sunset:05:51 PM (PST) Moon Set:07:19 AM (PST)2/27

Copyright © 2014 The Weather Underground, Inc.